Starlink 31625

operational
NORAD ID: 59458 Int'l Des: 2024-068 Owner: SPXS Country: US Constellation: starlink
LEOCIRCULAR

Starlink 31625について

説明を読み込み中...

リアルタイム位置

3D地球を読み込み中...

次回通過

高度履歴

Altitude vs Time

uPlot chart will show altitude changes over time

軌道要素

1 59458U 24068D 26034.24284678 .00000848 00000-0 40322-4 0 9992
2 59458 42.9983 229.1282 0000935 274.3041 85.7704 15.27580495103250
Epoch: Feb 3, 2026 • Age: 7 hours

現在のステータス

高度 493.7 km
速度 7.62 km/s
衛星直下点 -37.89°S, 132.26°E
打ち上げ日 Apr 10, 2024
運用期間 1.8 years
タイプ internet

技術仕様

分類 Payload
質量 730.00 kg
乾燥質量 700.00 kg
総質量 730.00 kg
長さ 0.30 m
直径 4.10 m
スパン 29.00 m
形状 Box + pan
製造者 SPXS
バスタイプ Starlink V2M
フェーズステータス In Orbit
所有者/国 SPXS/US

大規模コンステレーション

Loading constellations...